TimeCDT,TemperatureF,Dew PointF,Humidity,Sea Level PressureIn,VisibilityMPH,Wind Direction,Wind SpeedMPH,Gust SpeedMPH,PrecipitationIn,Events,Conditions,WindDirDegrees,DateUTC
12:15 AM,48.2,32.0,54,29.87,10.0,South,8.1,-,N/A,,Clear,180,2012-10-09 05:15:00
12:35 AM,48.2,32.0,54,29.86,10.0,South,6.9,-,N/A,,Clear,190,2012-10-09 05:35:00
12:55 AM,46.4,32.0,57,29.86,10.0,South,6.9,-,N/A,,Clear,190,2012-10-09 05:55:00
1:15 AM,46.4,33.8,62,29.87,10.0,SSW,3.5,-,N/A,,Clear,200,2012-10-09 06:15:00
1:35 AM,44.6,33.8,66,29.87,10.0,Calm,Calm,-,N/A,,Clear,0,2012-10-09 06:35:00
1:55 AM,46.4,32.0,57,29.87,10.0,Calm,Calm,-,N/A,,Clear,0,2012-10-09 06:55:00
2:15 AM,44.6,32.0,61,29.87,10.0,Calm,Calm,-,N/A,,Clear,0,2012-10-09 07:15:00
3:15 AM,41.0,33.8,76,29.86,10.0,Calm,Calm,-,N/A,,Clear,0,2012-10-09 08:15:00
3:35 AM,41.0,33.8,76,29.85,10.0,Calm,Calm,-,N/A,,Clear,0,2012-10-09 08:35:00
3:55 AM,42.8,33.8,70,29.84,10.0,South,4.6,-,N/A,,Clear,190,2012-10-09 08:55:00
4:15 AM,42.8,33.8,70,29.85,10.0,Calm,Calm,-,N/A,,Clear,0,2012-10-09 09:15:00
4:35 AM,42.8,33.8,70,29.84,10.0,South,3.5,-,N/A,,Clear,190,2012-10-09 09:35:00
4:55 AM,42.8,33.8,70,29.84,10.0,Calm,Calm,-,N/A,,Clear,0,2012-10-09 09:55:00
5:15 AM,41.0,33.8,76,29.84,10.0,Calm,Calm,-,N/A,,Clear,0,2012-10-09 10:15:00
5:35 AM,42.8,35.6,76,29.86,10.0,SW,3.5,-,N/A,,Clear,220,2012-10-09 10:35:00
5:55 AM,37.4,33.8,87,29.86,10.0,Calm,Calm,-,N/A,,Clear,0,2012-10-09 10:55:00
6:15 AM,41.0,33.8,76,29.86,10.0,Calm,Calm,-,N/A,,Clear,0,2012-10-09 11:15:00
6:35 AM,39.2,33.8,81,29.87,10.0,Calm,Calm,-,N/A,,Clear,0,2012-10-09 11:35:00
6:55 AM,39.2,33.8,81,29.87,10.0,Calm,Calm,-,N/A,,Clear,0,2012-10-09 11:55:00
7:15 AM,37.4,33.8,87,29.88,10.0,Calm,Calm,-,N/A,,Clear,0,2012-10-09 12:15:00
7:35 AM,39.2,35.6,87,29.89,10.0,Calm,Calm,-,N/A,,Clear,0,2012-10-09 12:35:00
7:55 AM,41.0,35.6,81,29.90,10.0,Calm,Calm,-,N/A,,Clear,0,2012-10-09 12:55:00
8:15 AM,42.8,35.6,76,29.91,10.0,Calm,Calm,-,N/A,,Clear,0,2012-10-09 13:15:00
8:35 AM,42.8,37.4,81,29.91,10.0,Calm,Calm,-,N/A,,Clear,0,2012-10-09 13:35:00
8:55 AM,42.8,37.4,81,29.90,10.0,Calm,Calm,-,N/A,,Clear,0,2012-10-09 13:55:00
9:15 AM,46.4,39.2,76,29.93,10.0,Calm,Calm,-,N/A,,Clear,0,2012-10-09 14:15:00
9:35 AM,50.0,42.8,76,29.93,10.0,North,9.2,-,N/A,,Clear,350,2012-10-09 14:35:00
9:55 AM,51.8,42.8,71,29.94,10.0,NNW,16.1,-,N/A,,Clear,340,2012-10-09 14:55:00
10:15 AM,51.8,42.8,71,29.94,10.0,NNW,21.9,26.5,N/A,,Clear,330,2012-10-09 15:15:00
10:35 AM,53.6,41.0,62,29.95,10.0,NNW,20.7,28.8,N/A,,Clear,340,2012-10-09 15:35:00
10:55 AM,53.6,39.2,58,29.95,10.0,North,17.3,25.3,N/A,,Clear,350,2012-10-09 15:55:00
11:15 AM,53.6,39.2,58,29.96,10.0,NNW,24.2,29.9,N/A,,Clear,340,2012-10-09 16:15:00
11:35 AM,51.8,41.0,67,29.97,10.0,NNW,21.9,33.4,N/A,,Scattered Clouds,340,2012-10-09 16:35:00
11:55 AM,51.8,39.2,62,29.98,10.0,NNW,23.0,28.8,N/A,,Scattered Clouds,330,2012-10-09 16:55:00
12:15 PM,50.0,37.4,62,29.99,10.0,NNW,24.2,31.1,N/A,,Scattered Clouds,330,2012-10-09 17:15:00
12:35 PM,50.0,37.4,62,30.00,10.0,NW,18.4,-,N/A,,Scattered Clouds,320,2012-10-09 17:35:00
12:55 PM,50.0,35.6,58,30.00,10.0,NNW,19.6,25.3,N/A,,Scattered Clouds,340,2012-10-09 17:55:00
1:15 PM,48.2,35.6,62,30.00,10.0,NW,15.0,19.6,N/A,,Light Drizzle,320,2012-10-09 18:15:00
1:35 PM,50.0,33.8,54,29.99,10.0,NW,16.1,23.0,N/A,,Scattered Clouds,320,2012-10-09 18:35:00
1:55 PM,51.8,30.2,44,29.99,10.0,NNW,19.6,23.0,N/A,,Clear,330,2012-10-09 18:55:00
2:15 PM,50.0,26.6,40,29.99,10.0,NNW,21.9,25.3,N/A,,Scattered Clouds,330,2012-10-09 19:15:00
2:35 PM,51.8,24.8,35,29.99,10.0,NW,16.1,-,N/A,,Mostly Cloudy,320,2012-10-09 19:35:00
2:55 PM,50.0,24.8,37,30.00,10.0,NW,18.4,25.3,N/A,,Mostly Cloudy,320,2012-10-09 19:55:00
3:15 PM,50.0,23.0,35,30.01,10.0,NNW,19.6,-,N/A,,Scattered Clouds,340,2012-10-09 20:15:00
3:35 PM,50.0,23.0,35,30.02,10.0,NNW,17.3,-,N/A,,Scattered Clouds,330,2012-10-09 20:35:00
3:55 PM,48.2,26.6,43,30.02,10.0,NW,13.8,-,N/A,,Mostly Cloudy,310,2012-10-09 20:55:00
4:15 PM,48.2,21.2,34,30.03,10.0,NW,16.1,25.3,N/A,,Scattered Clouds,320,2012-10-09 21:15:00
4:35 PM,50.0,23.0,35,30.03,10.0,NW,12.7,-,N/A,,Clear,310,2012-10-09 21:35:00
4:55 PM,48.2,23.0,37,30.02,10.0,WNW,10.4,-,N/A,,Clear,300,2012-10-09 21:55:00
5:15 PM,51.8,23.0,33,30.02,10.0,WNW,11.5,-,N/A,,Clear,290,2012-10-09 22:15:00
5:35 PM,51.8,21.2,30,30.02,10.0,WNW,9.2,-,N/A,,Clear,300,2012-10-09 22:35:00
5:55 PM,53.6,21.2,28,30.02,10.0,WNW,16.1,20.7,N/A,,Clear,290,2012-10-09 22:55:00
6:15 PM,51.8,21.2,30,30.03,10.0,NW,10.4,19.6,N/A,,Clear,320,2012-10-09 23:15:00
6:35 PM,50.0,19.4,30,30.04,10.0,NW,15.0,21.9,N/A,,Clear,320,2012-10-09 23:35:00
6:55 PM,48.2,21.2,34,30.05,10.0,NNW,15.0,19.6,N/A,,Clear,330,2012-10-09 23:55:00
7:15 PM,46.4,24.8,43,30.06,10.0,NNW,11.5,19.6,N/A,,Clear,340,2012-10-10 00:15:00
7:35 PM,44.6,24.8,46,30.08,10.0,NNW,9.2,-,N/A,,Clear,340,2012-10-10 00:35:00
7:55 PM,44.6,26.6,49,30.09,10.0,North,10.4,-,N/A,,Clear,350,2012-10-10 00:55:00
8:15 PM,42.8,26.6,53,30.10,10.0,NNW,10.4,-,N/A,,Clear,340,2012-10-10 01:15:00
8:35 PM,42.8,26.6,53,30.11,10.0,North,10.4,-,N/A,,Clear,350,2012-10-10 01:35:00
8:55 PM,41.0,24.8,53,30.12,10.0,North,6.9,-,N/A,,Clear,350,2012-10-10 01:55:00
9:15 PM,37.4,24.8,60,30.12,10.0,North,5.8,-,N/A,,Clear,350,2012-10-10 02:15:00
9:35 PM,33.8,24.8,70,30.13,10.0,North,4.6,-,N/A,,Clear,350,2012-10-10 02:35:00
9:55 PM,30.2,24.8,80,30.14,10.0,NNW,4.6,-,N/A,,Clear,330,2012-10-10 02:55:00
10:15 PM,33.8,24.8,70,30.14,10.0,Calm,Calm,-,N/A,,Clear,0,2012-10-10 03:15:00
10:35 PM,33.8,24.8,70,30.15,10.0,Calm,Calm,-,N/A,,Clear,0,2012-10-10 03:35:00
10:55 PM,30.2,24.8,80,30.16,10.0,Calm,Calm,-,N/A,,Clear,0,2012-10-10 03:55:00
11:15 PM,30.2,24.8,80,30.16,10.0,Calm,Calm,-,N/A,,Clear,0,2012-10-10 04:15:00
11:35 PM,30.2,24.8,80,30.16,10.0,North,3.5,-,N/A,,Clear,350,2012-10-10 04:35:00
11:55 PM,30.2,24.8,80,30.16,10.0,Calm,Calm,-,N/A,,Clear,0,2012-10-10 04:55:00